Weather Roundup
Issued by NWS Springfield, MO

Home | Current Version | Previous Version | Text Only | Print | Product List | Glossary On
Versions: 1 2 3 4 5 6 7 8 9 10 11 12 13 14 15 16 17 18 19 20 21 22 23 24 25 26 27 28 29 30 31 32 33 34 35 36 37 38 39 40 41 42 43 44 45 46 47 48 49 50
000
NZUS99 KSGF 300307
HRRSGF

HOURLY WEATHER
NATIONAL WEATHER SERVICE SPRINGFIELD MO
1000 PM CDT SUN MAY 29 2016

......SGF CWA......

CITY           SKY/WX    TMP DP  RH WIND       PRES   REMARKS
SPRINGFIELD    CLEAR     72  62  71 SE5       30.08R
JOPLIN         CLOUDY    70  65  84 SE3       30.06R
WEST PLAINS    CLEAR     68  64  87 CALM      30.11S
ROLLA          CLEAR     69  61  75 S7        30.08R

......SURROUNDING SGF CWA......

CITY           SKY/WX    TMP DP  RH WIND       PRES   REMARKS
CHANUTE        PTCLDY    71  67  87 CALM      30.05R
PARSONS        CLEAR     69  67  93 S3        30.06R
COFFEYVILLE    CLEAR     68  66  93 CALM      30.04R
EMPORIA        CLOUDY    67  64  90 E6        30.06R
GROVE OK       CLOUDY    72  68  88 CALM      30.07R
ROGERS AR        N/A     72  65  78 SE6       30.09F
SILOAM SPRINGS CLOUDY    64  54  68 W5        30.10R
HARRISON AR    CLOUDY    70  63  78 CALM      30.10S
NEAR YELLVILLE CLEAR    N/A N/A N/A CALM      30.05S

......KANSAS AND MISSOURI......

CITY           SKY/WX    TMP DP  RH WIND       PRES   REMARKS
KANSAS CTY INT CLOUDY    68  61  78 S8        30.05R
DOWNTOWN KC    CLOUDY    77  59  53 SW3       30.04R
COLUMBIA       CLOUDY    73  63  70 S6        30.06S
SEDALIA        PTCLDY    73  63  70 S6        30.08R
ST JOSEPH      CLOUDY    73  64  73 SW5       30.04R
ST LOUIS       CLOUDY    77  59  53 CALM      30.07R
SPIRIT OF STL  PTCLDY    70  66  87 CALM      30.05R
KIRKSVILLE     CLOUDY    70  63  78 S3        30.05R
WICHITA        CLOUDY    71  56  58 SW3       30.06R
TOPEKA         CLOUDY    72  66  81 CALM      30.04R
OLATHE         CLOUDY    72  60  66 SE5       30.06R

......TENNESSEE......

CITY           SKY/WX    TMP DP  RH WIND       PRES   REMARKS
MEMPHIS        MOCLDY    79  67  66 N3        30.06R
NASHVILLE      PTCLDY    75  65  70 CALM      30.05R

......ARKANSAS.......

CITY           SKY/WX    TMP DP  RH WIND       PRES   REMARKS
FAYETTEVILLE   CLOUDY    67  64  90 CALM      30.07F
FT SMITH       CLOUDY    78  68  71 E3        30.05R
LITTLE ROCK    PTCLDY    68  63  84 CALM      30.08R

......OKLAHOMA.......

CITY           SKY/WX    TMP DP  RH WIND       PRES   REMARKS
TULSA          CLOUDY    71  60  68 E5        30.03R
PONCA CITY     CLOUDY    72  61  68 SE12      30.03R
MCALESTER      CLOUDY    73  70  90 CALM      30.07R
OKLAHOMA CITY  MOCLDY    74  56  53 NW18      30.05R

......IOWA............

CITY           SKY/WX    TMP DP  RH WIND       PRES   REMARKS
DES MOINES     PTCLDY    76  56  49 S5        30.01R
QUAD CITIES    CLEAR     71  57  61 SW3       30.01R

......ILLINOIS........

CITY           SKY/WX    TMP DP  RH WIND       PRES   REMARKS
QUINCY         TSTM      73  63  70 CALM      30.05R
CHICAGO        PTCLDY    70  58  65 W6        29.99R



USA.gov is the U.S. government's official web portal to all federal, state and local government web resources and services.